User: anonymous   Login
Location: Unspecified
(0.0000°N, 0.0000°E)
Time: 09:33:45
(UTC+01:00)
Language:

Cosmos 1892 Rocket - Orbit

View from above orbital plane
View from above orbital plane
View from above satellite
View from above satellite

Ground track
Ground track

The orbit data is extracted from the following two-line orbital elements,

1 18422U 87088B   15061.51878576  .00000639  00000-0  76317-4 0  9994
2 18422 082.5091 241.6668 0018811 321.2046 090.7944 14.82631240477680
Epoch (UTC): 02 March 2015 12:27:03
Eccentricity: 0.0018811
inclination: 82.5091°
perigee height: 608 km
apogee height: 634 km
right ascension of ascending node: 241.6668°
argument of perigee: 321.2046°
revolutions per day: 14.82631240
mean anomaly at epoch: 90.7944°
orbit number at epoch: 47768

The dashed part of the orbit path shows where the satellite is in the earth's shadow,  

DLR